Terminal Aerodrome Forecast
Issued by NWS Albany, NY

Home | Current Version | Previous Version | Text Only | Print | Product List | Glossary On
Versions: 1 2 3 4 5 6 7 8 9 10 11 12 13 14 15 16 17 18 19 20 21 22 23 24 25 26 27 28 29
000
FTUS41 KALY 250121 AAA
TAFGFL
TAF AMD
KGFL 250121Z 2501/2524 VRB04KT 2SM -SNPL BR OVC004
      TEMPO 2501/2503 1SM -SN BR OVC006
     FM250300 34008KT 3SM -SN BR OVC005
      TEMPO 2503/2506 2SM -SN BR BKN007 OVC020
     FM250600 32010KT P6SM VCSH BKN025 OVC045
     FM251200 29008KT P6SM BKN025=

USA.gov is the U.S. government's official web portal to all federal, state and local government web resources and services.